Location: Baix
(44.7118°N, 4.7648°E)
Time: 06:13:51
(UTC+00:00)

Vanguard 1 - Pass Details

Date: 28 November 2020
Orbit: 648 x 3834 km, 34.3° (Epoch: 21 January)

Event Time Altitude Azimuth Distance (km) Brightness Sun altitude
Rises 03:38:53 0° 205° (SSW) 3,228 - -34.2°
Reaches altitude 10° 03:41:44 10° 185° (S) 2,545 - -33.7°
Exits shadow 03:43:09 15° 171° (S) 2,365 12.0 -33.4°
Maximum altitude 03:45:45 18° 142° (SE) 2,400 12.3 -33.0°
Drops below altitude 10° 03:51:09 10° 103° (ESE) 3,607 13.8 -32.0°
Sets 03:56:21 0° 88° (E) 5,231 14.9 -31.1°
